Mojave, CA

10:10 PM PST on February 11, 2016 (GMT -0800)
Mojave

Weather History for KMHV - March, 2013

Change the Weather History Date:

Friday, March 8, 2013

  Actual Average Record
Temperature  
Mean Temperature 38 °F -  
Max Temperature 44 °F 66 °F - (-1)
Min Temperature 32 °F 39 °F - (-1)
Degree Days  
Heating Degree Days 27    
Moisture  
Dew Point 32 °F    
Average Humidity 75    
Maximum Humidity 100    
Minimum Humidity 61    
Precipitation  
Precipitation 0.24 in - - ()
Sea Level Pressure  
Sea Level Pressure 29.82 in    
Wind  
Wind Speed 9 mph (SW)    
Max Wind Speed 26 mph    
Max Gust Speed 43 mph    
Visibility 9 miles    
Events      
Averages and records for this station are not official NWS values.
T = Trace of Precipitation, MM = Missing Value Source: NWS Daily Summary

Daily Weather History Graph

Daily Weather History Graph

Search for Another Location

Airport or City:

Trip Planner

Search our weather history database for the weather conditions in past years. The results will help you decide how hot, cold, wet, or windy it might be!

Date:

Astronomy

Mar. 08, 2013 Rise Set
Actual Time 6:12 AM PST 5:54 PM PST
Civil Twilight 5:47 AM PST 6:19 PM PST
Nautical Twilight 5:17 AM PST 6:49 PM PST
Astronomical Twilight 4:48 AM PST 7:18 PM PST
Moon 3:53 AM PST (3/8) 3:00 PM PST (3/8)
Length of Visible Light 12h 32m
Length of Day
11h 42m
Waning Crescent, 11% of the Moon is Illuminated
Mar 8
Waning Crescent
Mar 11
New
Mar 19
First Quarter
Mar 27
Full
Apr 2
Last Quarter

Hourly Weather History & Observations

Time (PST) Temp. Windchill Dew Point Humidity Pressure Visibility Wind Dir Wind Speed Gust Speed Precip Events Conditions
12:15 AM 42.8 °F 40.1 °F 32.0 °F 66% 29.81 in 10.0 mi West 4.6 mph - N/A   Overcast
12:35 AM 42.8 °F - 32.0 °F 66% 29.80 in 10.0 mi Calm Calm - N/A   Overcast
12:55 AM 42.8 °F - 32.0 °F 66% 29.80 in 10.0 mi Calm Calm - N/A   Scattered Clouds
1:15 AM 41.0 °F - 32.0 °F 70% 29.79 in 10.0 mi Calm Calm - N/A   Mostly Cloudy
1:35 AM 41.0 °F - 32.0 °F 70% 29.78 in 10.0 mi Calm Calm - N/A   Scattered Clouds
1:55 AM 41.0 °F 39.0 °F 32.0 °F 70% 29.77 in 10.0 mi NNE 3.5 mph - N/A   Mostly Cloudy
2:15 AM 39.2 °F 34.2 °F 32.0 °F 75% 29.76 in 10.0 mi ENE 6.9 mph - N/A   Overcast
2:35 AM 39.2 °F 35.0 °F 32.0 °F 75% 29.75 in 10.0 mi NE 5.8 mph - N/A   Overcast
2:55 AM 39.2 °F - 32.0 °F 75% 29.75 in 10.0 mi Calm Calm - N/A   Mostly Cloudy
3:15 AM 39.2 °F 35.0 °F 32.0 °F 75% 29.75 in 10.0 mi SW 5.8 mph - N/A   Mostly Cloudy
3:35 AM 39.2 °F 33.6 °F 33.8 °F 81% 29.75 in 6.0 mi SSW 8.1 mph - N/A   Overcast
3:55 AM 39.2 °F 33.6 °F 35.6 °F 87% 29.75 in 6.0 mi SSW 8.1 mph - 0.01 in   Overcast
4:15 AM 39.2 °F 33.6 °F 35.6 °F 87% 29.75 in 4.0 mi SW 8.1 mph - 0.01 in   Overcast
4:35 AM 37.4 °F 30.8 °F 35.6 °F 93% 29.75 in 4.0 mi SW 9.2 mph - 0.04 in   Overcast
4:55 AM 37.4 °F 29.8 °F 35.6 °F 93% 29.76 in 4.0 mi SW 11.5 mph - 0.06 in   Overcast
5:15 AM 35.6 °F 28.6 °F 33.8 °F 93% 29.77 in 3.0 mi WSW 9.2 mph - 0.03 in   Overcast
5:35 AM 32.0 °F 23.6 °F 32.0 °F 100% 29.76 in 2.0 mi West 10.4 mph - 0.07 in   Overcast
5:55 AM 32.0 °F 23.0 °F 32.0 °F 100% 29.76 in 3.0 mi WSW 11.5 mph - 0.12 in   Overcast
6:15 AM 32.0 °F 23.6 °F 32.0 °F 100% 29.75 in 5.0 mi WSW 10.4 mph - 0.03 in   Overcast
6:35 AM 33.8 °F 24.3 °F 33.8 °F 100% 29.75 in 4.0 mi West 13.8 mph - 0.04 in   Overcast
6:55 AM 35.6 °F 26.6 °F 33.8 °F 93% 29.74 in 7.0 mi WNW 13.8 mph - 0.05 in   Overcast
7:15 AM 37.4 °F 29.8 °F 32.0 °F 81% 29.75 in 9.0 mi WNW 11.5 mph - N/A   Overcast
7:35 AM 39.2 °F 31.6 °F 32.0 °F 75% 29.77 in 10.0 mi WSW 12.7 mph 21.9 mph N/A   Overcast
7:55 AM 37.4 °F 33.8 °F 32.0 °F 81% 29.78 in 10.0 mi SW 4.6 mph - N/A   Scattered Clouds
8:15 AM 37.4 °F 29.8 °F 32.0 °F 81% 29.80 in 10.0 mi South 11.5 mph - N/A   Mostly Cloudy
8:35 AM 37.4 °F 30.3 °F 33.8 °F 87% 29.81 in 10.0 mi SSW 10.4 mph - N/A   Overcast
8:55 AM 37.4 °F 31.4 °F 33.8 °F 87% 29.81 in 8.0 mi SSW 8.1 mph - N/A   Mostly Cloudy
9:15 AM 37.4 °F 32.1 °F 33.8 °F 87% 29.82 in 10.0 mi SSW 6.9 mph - N/A   Scattered Clouds
9:35 AM 39.2 °F 31.6 °F 35.6 °F 87% 29.82 in 10.0 mi WSW 12.7 mph - N/A   Scattered Clouds
9:55 AM 39.2 °F 31.6 °F 35.6 °F 87% 29.81 in 10.0 mi West 12.7 mph - N/A   Scattered Clouds
10:15 AM 41.0 °F 32.5 °F 33.8 °F 76% 29.81 in 10.0 mi West 17.3 mph - N/A   Scattered Clouds
10:35 AM 39.2 °F 30.2 °F 32.0 °F 75% 29.81 in 10.0 mi West 17.3 mph 20.7 mph N/A   Partly Cloudy
10:55 AM 41.0 °F 33.5 °F 32.0 °F 70% 29.82 in 10.0 mi West 13.8 mph - N/A   Scattered Clouds
11:15 AM 41.0 °F 34.3 °F 32.0 °F 70% 29.82 in 10.0 mi West 11.5 mph - N/A   Mostly Cloudy
11:35 AM 41.0 °F 33.1 °F 32.0 °F 70% 29.83 in 10.0 mi West 15.0 mph - N/A   Scattered Clouds
11:55 AM 41.0 °F 34.3 °F 32.0 °F 70% 29.83 in 10.0 mi WSW 11.5 mph - N/A   Mostly Cloudy
12:15 PM 41.0 °F 32.8 °F 32.0 °F 70% 29.82 in 10.0 mi WSW 16.1 mph - N/A   Mostly Cloudy
12:35 PM 41.0 °F 32.8 °F 32.0 °F 70% 29.82 in 10.0 mi SW 16.1 mph - N/A   Scattered Clouds
12:55 PM 39.2 °F 32.0 °F 32.0 °F 75% 29.82 in 10.0 mi SW 11.5 mph 21.9 mph N/A   Scattered Clouds
1:15 PM 41.0 °F 33.9 °F 32.0 °F 70% 29.82 in 10.0 mi SW 12.7 mph 19.6 mph N/A   Mostly Cloudy
1:35 PM 41.0 °F 34.7 °F 32.0 °F 70% 29.81 in 10.0 mi SSW 10.4 mph 18.4 mph N/A   Mostly Cloudy
1:55 PM 41.0 °F 35.8 °F 32.0 °F 70% 29.81 in 10.0 mi SW 8.1 mph 17.3 mph N/A   Scattered Clouds
2:15 PM 41.0 °F 33.5 °F 32.0 °F 70% 29.81 in 10.0 mi SW 13.8 mph 19.6 mph N/A   Mostly Cloudy
2:35 PM 41.0 °F 33.1 °F 32.0 °F 70% 29.81 in 10.0 mi SSW 15.0 mph 23.0 mph N/A   Overcast
2:55 PM 41.0 °F 35.2 °F 32.0 °F 70% 29.81 in 10.0 mi SSW 9.2 mph 24.2 mph N/A   Overcast
3:15 PM 41.0 °F 31.9 °F 32.0 °F 70% 29.80 in 10.0 mi SSW 19.6 mph 32.2 mph N/A   Overcast
3:35 PM 41.0 °F 33.1 °F 32.0 °F 70% 29.81 in 10.0 mi SW 15.0 mph 28.8 mph N/A   Mostly Cloudy
3:55 PM 41.0 °F 35.8 °F 32.0 °F 70% 29.81 in 10.0 mi WNW 8.1 mph 21.9 mph N/A   Mostly Cloudy
4:35 PM 41.0 °F 32.5 °F 32.0 °F 70% 29.80 in 10.0 mi WSW 17.3 mph 28.8 mph N/A   Scattered Clouds
4:55 PM 41.0 °F 31.4 °F 32.0 °F 70% 29.81 in 10.0 mi SW 21.9 mph 36.8 mph N/A   Partly Cloudy
5:15 PM 41.0 °F 33.9 °F 32.0 °F 70% 29.81 in 10.0 mi SSW 12.7 mph 23.0 mph N/A   Partly Cloudy
5:35 PM 41.0 °F 33.9 °F 32.0 °F 70% 29.82 in 10.0 mi SSW 12.7 mph 18.4 mph N/A   Mostly Cloudy
5:55 PM 41.0 °F 34.7 °F 32.0 °F 70% 29.83 in 10.0 mi WSW 10.4 mph 19.6 mph N/A   Overcast
6:15 PM 41.0 °F 33.5 °F 32.0 °F 70% 29.83 in 10.0 mi SSW 13.8 mph 26.5 mph N/A   Overcast
6:35 PM 41.0 °F 32.5 °F 32.0 °F 70% 29.84 in 10.0 mi SW 17.3 mph 25.3 mph N/A   Unknown
6:55 PM 41.0 °F 30.7 °F 32.0 °F 70% 29.84 in 10.0 mi WSW 25.3 mph 38.0 mph N/A   Scattered Clouds
7:15 PM 41.0 °F 32.8 °F 32.0 °F 70% 29.86 in 10.0 mi West 16.1 mph 42.6 mph N/A   Clear
7:35 PM 41.0 °F 32.8 °F 32.0 °F 70% 29.87 in 10.0 mi SW 16.1 mph 33.4 mph N/A   Scattered Clouds
7:55 PM 41.0 °F 32.5 °F 32.0 °F 70% 29.89 in 10.0 mi SW 17.3 mph 29.9 mph N/A   Mostly Cloudy
8:15 PM 41.0 °F 33.5 °F 32.0 °F 70% 29.90 in 10.0 mi SSW 13.8 mph 19.6 mph N/A   Overcast
8:35 PM 41.0 °F 34.7 °F 32.0 °F 70% 29.91 in 10.0 mi WSW 10.4 mph 19.6 mph N/A   Mostly Cloudy
8:55 PM 41.0 °F 31.4 °F 30.2 °F 65% 29.91 in 10.0 mi WSW 21.9 mph 27.6 mph N/A   Mostly Cloudy
9:15 PM 41.0 °F 30.9 °F 32.0 °F 70% 29.90 in 10.0 mi West 24.2 mph 27.6 mph N/A   Clear
9:35 PM 41.0 °F 30.5 °F 32.0 °F 70% 29.91 in 10.0 mi West 26.5 mph 32.2 mph N/A   Clear
9:55 PM 41.0 °F 35.8 °F 32.0 °F 70% 29.92 in 10.0 mi West 8.1 mph 23.0 mph N/A   Clear
10:15 PM 42.8 °F 35.4 °F 32.0 °F 66% 29.91 in 10.0 mi South 15.0 mph 21.9 mph N/A   Scattered Clouds
10:35 PM 42.8 °F 35.1 °F 32.0 °F 66% 29.91 in 10.0 mi West 16.1 mph 20.7 mph N/A   Scattered Clouds
10:55 PM 44.6 °F 40.2 °F 32.0 °F 61% 29.91 in 10.0 mi WSW 8.1 mph 31.1 mph N/A   Mostly Cloudy
11:15 PM 44.6 °F 36.4 °F 32.0 °F 61% 29.94 in 10.0 mi South 20.7 mph 28.8 mph N/A   Mostly Cloudy
11:35 PM 44.6 °F 38.1 °F 32.0 °F 61% 29.93 in 10.0 mi South 13.8 mph 34.5 mph N/A   Mostly Cloudy
11:55 PM 42.8 °F 37.0 °F 32.0 °F 66% 29.93 in 10.0 mi South 10.4 mph 36.8 mph N/A   Overcast